Location: �bnet
(46.9957°N, 8.4908°E)
Time: 09:38:31
(UTC+00:00)

USA 305 - Pass Details

Date: 11 May 2021
Orbit: 567 x 573 km, 54.0° (Epoch: 07 May)

Event Time Altitude Azimuth Distance (km) Brightness Sun altitude
Rises 22:02:05 0° 296° (WNW) 2,775 7.1 -22.4°
Reaches altitude 10° 22:04:32 10° 286° (WNW) 1,875 6.0 -22.6°
Enters shadow 22:07:27 27° 246° (WSW) 1,101 4.3 -22.7°
